COSMOS 2491 DEB, 57568

Orbit data source: Space-Track

COSMOS 2491 DEB, 57568 is space debris in LEO originally from a launch on Wed, 25 Dec 2013 UTC launched from the Plesetsk Missile And Space Complex (PKMTR). Debris objects in space refer to the collection of defunct objects orbiting the Earth. Examples of debris include non-operational satellites, rocket bodies, and fragments generated from explosions, collisions, or faulty payload assembly.

Loading next visibility...
Identifier
57568, 2013-076BF
Orbit
LEO
Country
Flag of CISCIS
Related business
Manufacturer
TsNIIKhM
Mission
Spacecraft
Bus & Motor
Unknown
Mass
Unknown
Launch date (UTC)
2013-12-25 (13 years ago)
Launch vehicle
Unknown
Launch site
Plesetsk Missile And Space Complex (PKMTR)
Object type
Payload
Rocket body
Debris
Shape & HBR
Unknown shape, 0.1 m
Radar Cross Section
Medium (>0.1 m² and <1 m²)

Expand to show TLE details & history
Last TLE update: 3 weeks ago

TLE from 3 weeks ago
0 COSMOS 2491 DEB
1 57568U 13076BF  26232.27893600 -.00000497  00000-0 -26540-2 0  9999
2 57568  82.4527  75.8108 0065886  16.4441 343.8769 12.66745257151409
Epoch: 2026-08-20T06:41Z
TLE epoch observation values (Epoch: 2026-08-20T06:41:40.070Z)
Latitude
Longitude
6.77351°
Altitude
1,348.776 km
Speed
7.206 km/s
True Right ascension
05h 03m 14s
True Declination
0° 00' 00"
Sunlit
Object was in daylight at epoch
Visualization orbit readout
Latitude
Unknown
Longitude
Unknown
Altitude
Unknown
Speed
Unknown
Apparent Right ascension
Unknown
Apparent Declination
Unknown
Sunlit
N/A
Visualization observer readout
Local Sidereal Time
01:48:44
Azimuth
Unknown
Elevation
Unknown
Doppler factor
Unknown
Orbital elements
Apogee altitude
1,443.744 km
Perigee altitude
1,341.348 km
Semi-major axis
7,770.683 km
Eccentricity
0.00659
Inclination
82.4527°
RAAN
75.8108°
Arg. of periapsis
16.4441°
True anomaly
343.66556°
Mean anomaly
343.8769°
Eccentric anomaly
343.7714°
Mean motion
3.16851 °/min
Orbital period
113.62 mins
BSTAR
-0.002654
Loading maneuver chart data...
Computing Atmospheric mass density...
Loading historical data...
Loading historical data...
Loading historical data...
Loading historical data...
Loading historical data...
Loading historical data...
Loading historical data...

Documentation

Showing up to 5 results
|